839  
ASUS44 KMAF 191810  
RWRMAF  
MIDLAND AREA WEATHER ROUNDUP  
NATIONAL WEATHER SERVICE MIDLAND TX  
100 PM CDT TUE SEP 19 2017  
   
..IN SOUTHWEST TEXAS AND SOUTHEAST NEW MEXICO
 
 
 
CITY SKY/WX TMP DP RH WIND PRES REMARKS
 
ALPINE SUNNY 86 52 30 SW7 30.14F  
ANDREWS FAIR 93 51 23 SW13G20 29.95F  
ARTESIA SUNNY 93 46 20 SW23G32 29.93F  
BIG SPRING SUNNY 90 65 43 S10G20 29.95F  
CARLSBAD SUNNY 94 46 19 SW15 29.92F  
DRYDEN N/A 84 66 54 NE3 29.96F  
FORT STOCKTON MOSUNNY 92 52 25 S10G17 29.97F  
GUAD PASS SUNNY 84 47 27 SW16G26 30.13F  
HOBBS SUNNY 90 48 24 SW12 29.97F  
MARFA NOT AVBL  
MIDLAND AIRPK SUNNY 92 59 32 SW14G21 29.95F  
MIDLAND INTL SUNNY 93 56 28 S16G23 29.94F  
ODESSA SUNNY 91 58 32 SW14 29.96F  
PECOS SUNNY 94 52 24 W6 29.92F  
PRESIDIO FAIR 83 60 45 SE6 30.03F  
SEMINOLE SUNNY 92 50 23 W12 29.96F  
SNYDER CLOUDY 90 64 43 S17G23 29.92F  
WINK SUNNY 95 51 22 SW9 29.92F  

   
..OTHER STATIONS IN TEXAS
 
 
 
CITY SKY/WX TMP DP RH WIND PRES REMARKS
 
ABILENE PTSUNNY 90 70 51 S21G26 29.90F  
AMARILLO SUNNY 90 40 17 SW23G35 29.87F  
AUSTIN PTSUNNY 90 73 57 S12G20 29.93F  
BROWNSVILLE MOSUNNY 90 78 68 SE14 29.92F HX 104  
CORPUS CHRISTI PTSUNNY 92 74 55 S14G25 29.91F HX 101  
DALLAS FTW PTSUNNY 91 73 55 S15 29.88F  
DEL RIO SUNNY 92 72 51 SE8G20 29.88F  
EL PASO MOSUNNY 89 52 28 SW15G21 30.03F  
HOUSTON INT PTSUNNY 88 74 63 S9 29.95F  
LUBBOCK MOSUNNY 91 53 27 W15 29.91F  
SAN ANGELO CLOUDY 86 68 54 S9G20 29.92F  
SAN ANTONIO PTSUNNY 90 70 51 VRB6G21 29.95F  
WACO MOSUNNY 92 71 50 S17 29.92F  
WICHITA FALLS NOT AVBL  

   
..OTHER LOCATIONS IN NEW MEXICO
 
 
 
CITY SKY/WX TMP DP RH WIND PRES REMARKS
 
ALAMOGORDO SUNNY 84 45 24 S5 30.04F  
ALBUQUERQUE MOSUNNY 76 35 22 SW10 30.05F  
CANNON AFB SUNNY 85 41 20 SW23G30 29.95F  
CLOVIS SUNNY 85 43 22 SW24 29.94F  
HOLLOMAN AFB SUNNY 90 46 21 SW12G20 30.03F  
ROSWELL SUNNY 94 43 17 W10G26 29.91F  
RUIDOSO SUNNY 75 36 23 SW26G33 30.15F  
SANTA FE SUNNY 75 26 16 W14G23 30.07F  
TRUTH OR CONSE SUNNY 87 38 17 W18G25 30.02F  
TUCUMCARI SUNNY 90 29 11 SW21G36 29.86F  

 
 
 
CLICK HERE TO GO TO PREVIOUS BULLETINS.

The Nexlab TX Page
The Nexlab NM Page Main Text Page